Weather History for KMLI - February, 2012

Change the Weather History Date:

Saturday, February 25, 2012

  Actual Average Record
Temperature  
Mean Temperature 22 °F 31 °F  
Max Temperature 28 °F 40 °F 71 °F (2000)
Min Temperature 16 °F 22 °F -10 °F (1967)
Degree Days  
Heating Degree Days 43 34  
Month to date heating degree days 857 964  
Since 1 July heating degree days 4087 4698  
Cooling Degree Days 0 0  
Month to date cooling degree days 0 0  
Year to date cooling degree days 0 0  
Moisture  
Dew Point 13 °F    
Average Humidity 71    
Maximum Humidity 84    
Minimum Humidity 58    
Precipitation  
Precipitation 0.00 in 0.07 in 1.23 in (2000)
Month to date precipitation 1.67 1.37  
Year to date precipitation 2.37 2.86  
Snow  
Snow 0.00 in 0.10 in - ()
Month to date snowfall 3.9 6.2  
Since 1 July snowfall 12.9 26.1  
Snow Depth 2.00 in    
Sea Level Pressure  
Sea Level Pressure 30.24 in    
Wind  
Wind Speed 10 mph (WNW)    
Max Wind Speed 30 mph    
Max Gust Speed 37 mph    
Visibility 10 miles    
Events      
T = Trace of Precipitation, MM = Missing Value Source: NWS Daily Summary

Daily Weather History Graph

Daily Weather History Graph

Search for Another Location

Airport or City:

Trip Planner

Search our weather history database for the weather conditions in past years. The results will help you decide how hot, cold, wet, or windy it might be!

Date:

Astronomy

Feb. 25, 2012 Rise Set
Actual Time 6:43 AM CST 5:47 PM CST
Civil Twilight 6:15 AM CST 6:15 PM CST
Nautical Twilight 5:43 AM CST 6:47 PM CST
Astronomical Twilight 5:11 AM CST 7:19 PM CST
Moon 8:03 AM CST (2/25) 9:52 PM CST (2/25)
Length of Visible Light 11h 59m
Length of Day
11h 03m
Waxing Crescent, 14% of the Moon is Illuminated
Feb 25
Waxing Crescent
Feb 29
First Quarter
Mar 8
Full
Mar 14
Last Quarter
Mar 22
New

Hourly Weather History & Observations

Time (CST) Temp. Windchill Dew Point Humidity Pressure Visibility Wind Dir Wind Speed Gust Speed Precip Events Conditions
12:52 AM 25.0 °F 13.6 °F 19.0 °F 78% 30.08 in 10.0 mi WNW 12.7 mph - N/A   Overcast
1:52 AM 23.0 °F 7.6 °F 12.9 °F 65% 30.10 in 10.0 mi NW 21.9 mph 32.2 mph N/A   Partly Cloudy
2:52 AM 19.9 °F 5.2 °F 12.0 °F 71% 30.13 in 10.0 mi WNW 17.3 mph 34.5 mph N/A   Partly Cloudy
3:52 AM 19.9 °F 4.3 °F 10.9 °F 68% 30.14 in 10.0 mi NW 19.6 mph 29.9 mph N/A   Clear
4:52 AM 19.0 °F 6.8 °F 10.9 °F 71% 30.18 in 10.0 mi WNW 11.5 mph - N/A   Scattered Clouds
5:11 AM 19.4 °F 7.9 °F 12.2 °F 74% 30.16 in 10.0 mi WNW 10.4 mph - N/A   Mostly Cloudy
5:52 AM 18.0 °F 3.6 °F 10.9 °F 74% 30.21 in 10.0 mi NW 15.0 mph - N/A   Overcast
6:22 AM 17.6 °F 2.7 °F 8.6 °F 68% 30.18 in 10.0 mi NW 16.1 mph 25.3 mph N/A   Scattered Clouds
6:52 AM 17.1 °F 2.5 °F 9.0 °F 71% 30.23 in 10.0 mi NW 15.0 mph 26.5 mph N/A   Partly Cloudy
7:52 AM 17.1 °F 1.5 °F 8.1 °F 68% 30.26 in 10.0 mi WNW 17.3 mph 24.2 mph N/A   Scattered Clouds
7:59 AM 17.6 °F 3.7 °F 8.6 °F 68% 30.23 in 10.0 mi WNW 13.8 mph 24.2 mph N/A   Overcast
8:30 AM 17.6 °F 3.7 °F 8.6 °F 68% 30.25 in 10.0 mi NW 13.8 mph 19.6 mph N/A   Scattered Clouds
8:52 AM 19.0 °F 5.6 °F 10.0 °F 68% 30.29 in 10.0 mi WNW 13.8 mph 23.0 mph N/A   Clear
9:52 AM 19.9 °F 6.2 °F 10.0 °F 65% 30.30 in 10.0 mi NNW 15.0 mph 23.0 mph N/A   Clear
10:52 AM 21.0 °F 9.3 °F 12.9 °F 71% 30.32 in 10.0 mi WNW 11.5 mph - N/A   Partly Cloudy
11:52 AM 23.0 °F 14.7 °F 12.9 °F 65% 30.32 in 10.0 mi WNW 6.9 mph - N/A   Clear
12:52 PM 24.1 °F 17.0 °F 14.0 °F 65% 30.30 in 10.0 mi West 5.8 mph - N/A   Clear
1:52 PM 26.1 °F 17.6 °F 16.0 °F 66% 30.30 in 10.0 mi WNW 8.1 mph - N/A   Partly Cloudy
2:52 PM 28.0 °F - 15.1 °F 58% 30.29 in 10.0 mi Calm Calm - N/A   Clear
3:52 PM 27.0 °F 19.5 °F 17.1 °F 66% 30.29 in 10.0 mi SW 6.9 mph - N/A   Clear
4:52 PM 26.1 °F 21.9 °F 16.0 °F 66% 30.29 in 10.0 mi WSW 3.5 mph - N/A   Clear
5:52 PM 24.1 °F 18.2 °F 17.1 °F 75% 30.29 in 10.0 mi SSW 4.6 mph - N/A   Clear
6:52 PM 21.0 °F 16.2 °F 16.0 °F 81% 30.30 in 10.0 mi ESE 3.5 mph - N/A   Clear
7:52 PM 18.0 °F 8.7 °F 14.0 °F 84% 30.28 in 10.0 mi East 6.9 mph - N/A   Clear
8:52 PM 19.0 °F 10.0 °F 15.1 °F 85% 30.28 in 10.0 mi East 6.9 mph - N/A   Clear
9:52 PM 18.0 °F 8.7 °F 14.0 °F 84% 30.27 in 10.0 mi ESE 6.9 mph - N/A   Clear
10:52 PM 19.0 °F 11.1 °F 14.0 °F 81% 30.28 in 10.0 mi East 5.8 mph - N/A   Clear
11:52 PM 19.4 °F 10.4 °F 14.0 °F 80% 30.22 in 10.0 mi East 6.9 mph - N/A   Clear